Terminal Aerodrome Forecast
Issued by NWS Atlanta, GA

Home | Current Version | Previous Version | Text Only | Print | Product List | Glossary On
Versions: 1 2 3 4 5 6 7 8 9 10 11 12 13 14 15 16 17 18 19 20 21 22 23 24 25 26 27 28 29 30 31 32 33 34 35 36 37 38 39 40 41 42 43 44 45 46 47 48 49 50
000
FTUS42 KFFC 170931 AAB
TAFATL
TAF AMD
KATL 170931Z 1710/1812 22005KT P6SM FEW250
     FM171400 27007KT P6SM SCT035 SCT250
     FM171900 25010KT P6SM VCSH BKN050
     FM180100 28006KT P6SM BKN050
     FM180500 27004KT P6SM SCT250=

USA.gov is the U.S. government's official web portal to all federal, state and local government web resources and services.